Time,TemperatureF,DewpointF,PressureIn,WindDirection,WindDirectionDegrees,WindSpeedMPH,WindSpeedGustMPH,Humidity,HourlyPrecipIn,Conditions,Clouds,dailyrainin,SoftwareType,DateUTC
2013-01-11 00:05:00,27.1,6.6,23.51,SSW,211,2.7,2.7,41,0.00,,---,0.00,VWS V14.01,2013-01-11 07:05:00,
2013-01-11 00:10:00,27.9,7.2,23.51,SW,226,4.0,4.0,41,0.00,,---,0.00,VWS V14.01,2013-01-11 07:10:00,
2013-01-11 00:16:00,27.9,6.7,23.51,WNW,288,2.2,2.2,40,0.00,,---,0.00,VWS V14.01,2013-01-11 07:16:00,
2013-01-11 00:22:00,27.9,6.7,23.51,WSW,247,3.1,3.1,40,0.00,,---,0.00,VWS V14.01,2013-01-11 07:22:00,
2013-01-11 00:28:00,27.9,6.7,23.51,West,267,2.7,3.1,40,0.00,,---,0.00,VWS V14.01,2013-01-11 07:28:00,
2013-01-11 00:34:00,28.8,6.9,23.51,SW,222,3.6,3.6,39,0.00,,---,0.00,VWS V14.01,2013-01-11 07:34:00,
2013-01-11 00:40:00,28.9,6.5,23.51,SW,231,0.0,3.1,38,0.00,,---,0.00,VWS V14.01,2013-01-11 07:40:00,
2013-01-11 00:46:00,29.5,6.4,23.51,WSW,252,2.7,4.0,37,0.00,,---,0.00,VWS V14.01,2013-01-11 07:46:00,
2013-01-11 00:52:00,30.2,7.1,23.51,SW,218,2.7,3.1,37,0.00,,---,0.00,VWS V14.01,2013-01-11 07:52:00,
2013-01-11 00:58:00,29.3,6.3,23.51,SW,235,0.0,3.1,37,0.00,,---,0.00,VWS V14.01,2013-01-11 07:58:00,
2013-01-11 01:08:00,28.9,5.9,23.51,SW,235,2.2,2.2,37,0.00,,---,0.00,VWS V14.01,2013-01-11 08:08:00,
2013-01-11 01:14:00,28.6,5.6,23.51,WSW,237,0.0,0.0,37,0.00,,---,0.00,VWS V14.01,2013-01-11 08:14:00,
2013-01-11 01:19:00,28.4,5.5,23.51,WSW,237,0.0,0.0,37,0.00,,---,0.00,VWS V14.01,2013-01-11 08:19:00,
2013-01-11 01:25:00,27.9,5.6,23.51,WSW,237,0.0,0.0,38,0.00,,---,0.00,VWS V14.01,2013-01-11 08:25:00,
2013-01-11 01:31:00,27.9,5.6,23.51,West,265,0.0,0.0,38,0.00,,---,0.00,VWS V14.01,2013-01-11 08:31:00,
2013-01-11 01:36:00,27.9,5.6,23.51,West,265,0.0,0.0,38,0.00,,---,0.00,VWS V14.01,2013-01-11 08:36:00,
2013-01-11 01:41:00,27.1,4.9,23.48,West,265,0.0,0.0,38,0.00,,---,0.00,VWS V14.01,2013-01-11 08:41:00,
2013-01-11 01:47:00,27.0,4.8,23.48,West,265,0.0,0.0,38,0.00,,---,0.00,VWS V14.01,2013-01-11 08:47:00,
2013-01-11 01:52:00,26.8,5.2,23.48,West,265,0.0,0.0,39,0.00,,---,0.00,VWS V14.01,2013-01-11 08:52:00,
2013-01-11 01:57:00,26.6,5.0,23.48,West,265,0.0,0.0,39,0.00,,---,0.00,VWS V14.01,2013-01-11 08:57:00,
2013-01-11 02:02:00,26.6,5.0,23.48,West,265,0.0,0.0,39,0.00,,---,0.00,VWS V14.01,2013-01-11 09:02:00,
2013-01-11 02:08:00,26.4,5.9,23.48,WSW,249,4.0,4.0,41,0.00,,---,0.00,VWS V14.01,2013-01-11 09:08:00,
2013-01-11 02:14:00,26.4,5.4,23.48,SSW,204,4.0,4.0,40,0.00,,---,0.00,VWS V14.01,2013-01-11 09:14:00,
2013-01-11 02:20:00,26.1,5.6,23.48,WNW,285,0.0,0.0,41,0.00,,---,0.00,VWS V14.01,2013-01-11 09:20:00,
2013-01-11 02:26:00,25.9,5.4,23.48,West,272,3.6,4.0,41,0.00,,---,0.00,VWS V14.01,2013-01-11 09:26:00,
2013-01-11 02:31:00,25.9,5.4,23.48,ENE,76,2.7,3.1,41,0.00,,---,0.00,VWS V14.01,2013-01-11 09:31:00,
2013-01-11 02:36:00,25.9,5.4,23.48,SSW,211,0.0,0.0,41,0.00,,---,0.00,VWS V14.01,2013-01-11 09:36:00,
2013-01-11 02:41:00,25.7,5.3,23.48,NW,304,0.0,3.1,41,0.00,,---,0.00,VWS V14.01,2013-01-11 09:41:00,
2013-01-11 02:47:00,25.7,5.3,23.48,WNW,285,0.0,3.1,41,0.00,,---,0.00,VWS V14.01,2013-01-11 09:47:00,
2013-01-11 02:52:00,25.7,5.3,23.48,WSW,240,2.7,4.0,41,0.00,,---,0.00,VWS V14.01,2013-01-11 09:52:00,
2013-01-11 02:58:00,26.1,5.6,23.45,SSW,204,3.1,3.1,41,0.00,,---,0.00,VWS V14.01,2013-01-11 09:58:00,
2013-01-11 03:03:00,25.7,5.3,23.45,SW,215,2.2,2.2,41,0.00,,---,0.00,VWS V14.01,2013-01-11 10:03:00,
2013-01-11 03:09:00,25.3,4.9,23.45,SW,215,0.0,0.0,41,0.00,,---,0.00,VWS V14.01,2013-01-11 10:09:00,
2013-01-11 03:14:00,25.2,5.3,23.45,SW,215,0.0,0.0,42,0.00,,---,0.00,VWS V14.01,2013-01-11 10:14:00,
2013-01-11 03:19:00,24.8,5.0,23.45,SW,215,0.0,0.0,42,0.00,,---,0.00,VWS V14.01,2013-01-11 10:19:00,
2013-01-11 03:24:00,24.8,5.0,23.45,SSW,211,0.0,2.2,42,0.00,,---,0.00,VWS V14.01,2013-01-11 10:24:00,
2013-01-11 03:29:00,24.8,5.5,23.45,WNW,283,3.6,4.0,43,0.00,,---,0.00,VWS V14.01,2013-01-11 10:29:00,
2013-01-11 03:34:00,25.2,5.3,23.45,WSW,243,3.6,3.6,42,0.00,,---,0.00,VWS V14.01,2013-01-11 10:34:00,
2013-01-11 03:39:00,24.6,5.3,23.45,SSW,203,2.7,2.7,43,0.00,,---,0.00,VWS V14.01,2013-01-11 10:39:00,
2013-01-11 03:45:00,25.0,5.7,23.45,SSW,206,4.5,4.5,43,0.00,,---,0.00,VWS V14.01,2013-01-11 10:45:00,
2013-01-11 03:50:00,24.8,5.5,23.45,WSW,255,3.6,4.0,43,0.00,,---,0.00,VWS V14.01,2013-01-11 10:50:00,
2013-01-11 03:55:00,25.7,6.3,23.42,WSW,243,4.0,4.0,43,0.00,,---,0.00,VWS V14.01,2013-01-11 10:55:00,
2013-01-11 04:01:00,25.9,6.5,23.42,North,0,2.2,2.2,43,0.00,,---,0.00,VWS V14.01,2013-01-11 11:01:00,
2013-01-11 04:07:00,25.5,5.6,23.42,SW,231,3.1,3.1,42,0.00,,---,0.00,VWS V14.01,2013-01-11 11:07:00,
2013-01-11 04:13:00,26.4,6.4,23.42,South,177,0.0,0.0,42,0.00,,---,0.00,VWS V14.01,2013-01-11 11:13:00,
2013-01-11 04:19:00,26.2,6.3,23.42,SW,235,0.0,0.0,42,0.00,,---,0.00,VWS V14.01,2013-01-11 11:19:00,
2013-01-11 04:25:00,26.4,6.4,23.42,South,185,0.0,0.0,42,0.00,,---,0.00,VWS V14.01,2013-01-11 11:25:00,
2013-01-11 04:31:00,26.2,6.3,23.42,South,185,0.0,0.0,42,0.00,,---,0.00,VWS V14.01,2013-01-11 11:31:00,
2013-01-11 04:36:00,26.2,6.3,23.42,SSW,213,0.0,0.0,42,0.00,,---,0.00,VWS V14.01,2013-01-11 11:36:00,
2013-01-11 04:42:00,26.2,6.3,23.42,WNW,289,0.0,0.0,42,0.00,,---,0.00,VWS V14.01,2013-01-11 11:42:00,
2013-01-11 04:48:00,26.2,6.3,23.42,SSW,212,0.0,0.0,42,0.00,,---,0.00,VWS V14.01,2013-01-11 11:48:00,
2013-01-11 04:53:00,26.2,6.3,23.42,WNW,286,3.1,3.1,42,0.00,,---,0.00,VWS V14.01,2013-01-11 11:53:00,
2013-01-11 04:59:00,26.4,6.4,23.39,WNW,286,0.0,0.0,42,0.00,,---,0.00,VWS V14.01,2013-01-11 11:59:00,
2013-01-11 05:04:00,26.1,6.1,23.39,SW,214,0.0,0.0,42,0.00,,---,0.00,VWS V14.01,2013-01-11 12:04:00,
2013-01-11 05:10:00,26.2,6.3,23.39,WNW,289,2.7,2.7,42,0.00,,---,0.00,VWS V14.01,2013-01-11 12:10:00,
2013-01-11 05:16:00,26.2,6.3,23.39,WSW,247,0.0,0.0,42,0.00,,---,0.00,VWS V14.01,2013-01-11 12:16:00,
2013-01-11 05:22:00,26.8,6.8,23.39,SSW,207,2.7,2.7,42,0.00,,---,0.00,VWS V14.01,2013-01-11 12:22:00,
2013-01-11 05:27:00,26.4,6.4,23.39,WNW,302,0.0,0.0,42,0.00,,---,0.00,VWS V14.01,2013-01-11 12:27:00,
2013-01-11 05:32:00,27.0,6.9,23.39,WNW,282,3.1,5.4,42,0.00,,---,0.00,VWS V14.01,2013-01-11 12:32:00,
2013-01-11 05:38:00,27.3,7.3,23.39,NNW,333,2.7,6.7,42,0.00,,---,0.00,VWS V14.01,2013-01-11 12:38:00,
2013-01-11 05:44:00,27.5,6.9,23.39,NNW,329,3.6,5.4,41,0.00,,---,0.00,VWS V14.01,2013-01-11 12:44:00,
2013-01-11 05:50:00,30.2,9.4,23.39,NE,45,2.7,7.6,41,0.00,,---,0.00,VWS V14.01,2013-01-11 12:50:00,
2013-01-11 05:55:00,31.5,9.9,23.36,SSE,166,4.0,5.4,40,0.00,,---,0.00,VWS V14.01,2013-01-11 12:55:00,
2013-01-11 06:01:00,32.4,10.2,23.36,SSW,202,0.0,2.7,39,0.00,,---,0.00,VWS V14.01,2013-01-11 13:01:00,
2013-01-11 06:06:00,34.3,10.8,23.36,SSW,206,2.2,3.6,37,0.00,,---,0.00,VWS V14.01,2013-01-11 13:06:00,
2013-01-11 06:11:00,34.3,10.2,23.36,South,183,2.2,4.0,36,0.00,,---,0.00,VWS V14.01,2013-01-11 13:11:00,
2013-01-11 06:17:00,31.8,7.9,23.36,SW,236,2.7,2.7,36,0.00,,---,0.00,VWS V14.01,2013-01-11 13:17:00,
2013-01-11 06:23:00,29.7,7.2,23.36,SW,215,2.7,3.6,38,0.00,,---,0.00,VWS V14.01,2013-01-11 13:23:00,
2013-01-11 06:29:00,28.2,7.6,23.36,SW,217,3.6,3.6,41,0.00,,---,0.00,VWS V14.01,2013-01-11 13:29:00,
2013-01-11 06:35:00,27.5,6.9,23.36,West,280,2.7,2.7,41,0.00,,---,0.00,VWS V14.01,2013-01-11 13:35:00,
2013-01-11 06:41:00,27.0,6.9,23.36,West,279,2.7,3.1,42,0.00,,---,0.00,VWS V14.01,2013-01-11 13:41:00,
2013-01-11 06:46:00,26.6,7.1,23.36,West,279,3.1,3.1,43,0.00,,---,0.00,VWS V14.01,2013-01-11 13:46:00,
2013-01-11 06:51:00,26.4,7.0,23.36,West,279,3.1,3.1,43,0.00,,---,0.00,VWS V14.01,2013-01-11 13:51:00,
2013-01-11 06:57:00,26.8,7.3,23.36,West,280,0.0,3.1,43,0.00,,---,0.00,VWS V14.01,2013-01-11 13:57:00,
2013-01-11 07:02:00,26.1,7.2,23.36,West,280,2.7,3.6,44,0.00,,---,0.00,VWS V14.01,2013-01-11 14:02:00,
2013-01-11 07:08:00,26.4,7.5,23.36,West,266,0.0,2.7,44,0.00,,---,0.00,VWS V14.01,2013-01-11 14:08:00,
2013-01-11 07:14:00,26.4,8.0,23.36,West,266,2.7,3.1,45,0.00,,---,0.00,VWS V14.01,2013-01-11 14:14:00,
2013-01-11 07:20:00,26.8,8.3,23.36,West,266,2.2,2.2,45,0.00,,---,0.00,VWS V14.01,2013-01-11 14:20:00,
2013-01-11 07:25:00,27.0,8.5,23.36,West,266,2.2,2.7,45,0.00,,---,0.00,VWS V14.01,2013-01-11 14:25:00,
2013-01-11 07:31:00,27.1,8.6,23.36,West,266,2.7,2.7,45,0.00,,---,0.00,VWS V14.01,2013-01-11 14:31:00,
2013-01-11 07:37:00,27.3,8.8,23.36,West,266,2.7,3.1,45,0.00,,---,0.00,VWS V14.01,2013-01-11 14:37:00,
2013-01-11 07:42:00,27.3,9.3,23.36,SW,223,2.7,3.1,46,0.00,,---,0.00,VWS V14.01,2013-01-11 14:42:00,
2013-01-11 07:48:00,28.9,10.8,23.36,WNW,302,5.8,8.1,46,0.00,,---,0.00,VWS V14.01,2013-01-11 14:48:00,
2013-01-11 07:54:00,32.7,14.7,23.39,WSW,238,3.6,4.5,47,0.00,,---,0.00,VWS V14.01,2013-01-11 14:54:00,
2013-01-11 07:59:00,34.0,14.9,23.39,SSW,209,3.6,4.9,45,0.00,,---,0.00,VWS V14.01,2013-01-11 14:59:00,
2013-01-11 08:05:00,34.3,15.7,23.39,SSW,197,2.7,3.6,46,0.00,,---,0.00,VWS V14.01,2013-01-11 15:05:00,
2013-01-11 08:10:00,33.8,17.1,23.39,SSW,213,4.9,5.4,50,0.00,,---,0.00,VWS V14.01,2013-01-11 15:10:00,
2013-01-11 08:15:00,33.4,18.6,23.39,SE,145,3.1,3.1,54,0.00,,---,0.00,VWS V14.01,2013-01-11 15:15:00,
2013-01-11 08:21:00,32.7,19.6,23.39,WSW,240,2.7,4.0,58,0.00,,---,0.00,VWS V14.01,2013-01-11 15:21:00,
2013-01-11 08:26:00,32.5,19.8,23.39,WNW,298,2.2,4.0,59,0.00,,---,0.00,VWS V14.01,2013-01-11 15:26:00,
2013-01-11 08:32:00,32.5,19.4,23.39,SSW,197,4.0,4.0,58,0.00,,---,0.00,VWS V14.01,2013-01-11 15:32:00,
2013-01-11 08:38:00,32.9,17.2,23.39,NW,311,0.0,4.0,52,0.00,,---,0.00,VWS V14.01,2013-01-11 15:38:00,
2013-01-11 08:43:00,33.1,16.5,23.39,SE,124,4.9,7.2,50,0.00,,---,0.00,VWS V14.01,2013-01-11 15:43:00,
2013-01-11 08:49:00,34.0,12.8,23.39,SSE,147,0.0,3.6,41,0.00,,---,0.00,VWS V14.01,2013-01-11 15:49:00,
2013-01-11 08:55:00,34.0,12.2,23.39,SSE,164,3.6,4.0,40,0.00,,---,0.00,VWS V14.01,2013-01-11 15:55:00,
2013-01-11 09:00:00,34.0,12.2,23.39,WSW,249,2.7,4.0,40,0.00,,---,0.00,VWS V14.01,2013-01-11 16:00:00,
2013-01-11 09:06:00,34.0,11.1,23.39,South,186,0.0,2.2,38,0.00,,---,0.00,VWS V14.01,2013-01-11 16:06:00,
2013-01-11 09:11:00,34.0,9.9,23.39,SSW,200,3.6,8.1,36,0.00,,---,0.00,VWS V14.01,2013-01-11 16:11:00,
2013-01-11 09:17:00,34.0,9.2,23.39,SSW,193,7.6,10.5,35,0.00,,---,0.00,VWS V14.01,2013-01-11 16:17:00,
2013-01-11 09:23:00,34.0,8.6,23.39,SW,220,2.7,5.4,34,0.00,,---,0.00,VWS V14.01,2013-01-11 16:23:00,
2013-01-11 09:29:00,34.0,7.9,23.39,South,180,6.3,8.3,33,0.00,,---,0.00,VWS V14.01,2013-01-11 16:29:00,
2013-01-11 09:34:00,33.6,6.9,23.39,SSE,166,3.6,5.4,32,0.00,,---,0.00,VWS V14.01,2013-01-11 16:34:00,
2013-01-11 09:39:00,33.3,6.6,23.39,South,188,8.3,9.2,32,0.00,,---,0.00,VWS V14.01,2013-01-11 16:39:00,
2013-01-11 09:45:00,32.7,6.1,23.39,West,262,5.8,8.3,32,0.00,,---,0.00,VWS V14.01,2013-01-11 16:45:00,
2013-01-11 09:50:00,32.4,5.8,23.39,WNW,300,8.3,15.4,32,0.00,,---,0.00,VWS V14.01,2013-01-11 16:50:00,
2013-01-11 09:55:00,31.8,5.3,23.42,SW,234,9.6,10.5,32,0.00,,---,0.00,VWS V14.01,2013-01-11 16:55:00,
2013-01-11 10:01:00,31.1,4.7,23.42,NW,314,8.7,13.2,32,0.00,,---,0.00,VWS V14.01,2013-01-11 17:01:00,
2013-01-11 10:07:00,30.7,4.4,23.42,ESE,121,4.0,5.8,32,0.00,,---,0.00,VWS V14.01,2013-01-11 17:07:00,
2013-01-11 10:13:00,30.2,3.9,23.42,West,267,6.3,10.5,32,0.00,,---,0.00,VWS V14.01,2013-01-11 17:13:00,
2013-01-11 10:19:00,30.0,3.8,23.42,South,177,7.6,7.6,32,0.00,,---,0.00,VWS V14.01,2013-01-11 17:19:00,
2013-01-11 10:24:00,30.0,3.8,23.42,SW,235,8.7,8.7,32,0.00,,---,0.00,VWS V14.01,2013-01-11 17:24:00,
2013-01-11 10:30:00,29.8,3.6,23.42,WSW,253,12.3,12.3,32,0.00,,---,0.00,VWS V14.01,2013-01-11 17:30:00,
2013-01-11 10:36:00,29.8,3.6,23.42,WNW,299,5.4,7.6,32,0.00,,---,0.00,VWS V14.01,2013-01-11 17:36:00,
2013-01-11 10:41:00,29.8,3.6,23.42,South,179,4.0,6.3,32,0.00,,---,0.00,VWS V14.01,2013-01-11 17:41:00,
2013-01-11 10:47:00,29.8,3.6,23.42,SE,141,4.0,6.7,32,0.00,,---,0.00,VWS V14.01,2013-01-11 17:47:00,
2013-01-11 10:53:00,29.8,3.6,23.42,SE,140,5.4,9.6,32,0.00,,---,0.00,VWS V14.01,2013-01-11 17:53:00,
2013-01-11 10:58:00,29.8,2.9,23.42,SSW,193,3.6,9.6,31,0.00,,---,0.00,VWS V14.01,2013-01-11 17:58:00,
2013-01-11 11:03:00,30.2,3.2,23.42,WSW,242,3.6,8.7,31,0.00,,---,0.00,VWS V14.01,2013-01-11 18:03:00,
2013-01-11 11:09:00,30.6,3.5,23.42,South,186,2.7,7.2,31,0.00,,---,0.00,VWS V14.01,2013-01-11 18:09:00,
2013-01-11 11:14:00,30.9,3.1,23.42,SSW,203,8.3,14.5,30,0.00,,---,0.00,VWS V14.01,2013-01-11 18:14:00,
2013-01-11 11:20:00,31.1,3.3,23.42,ENE,72,4.9,6.3,30,0.00,,---,0.00,VWS V14.01,2013-01-11 18:20:00,
2013-01-11 11:26:00,31.1,3.3,23.39,West,275,16.3,16.3,30,0.00,,---,0.00,VWS V14.01,2013-01-11 18:26:00,
2013-01-11 11:32:00,30.9,3.1,23.39,NW,322,11.9,15.0,30,0.00,,---,0.00,VWS V14.01,2013-01-11 18:32:00,
2013-01-11 11:38:00,30.9,1.7,23.39,SW,225,8.3,13.6,28,0.00,,---,0.00,VWS V14.01,2013-01-11 18:38:00,
2013-01-11 11:44:00,30.7,1.5,23.39,SSW,193,8.7,13.6,28,0.00,,---,0.00,VWS V14.01,2013-01-11 18:44:00,
2013-01-11 11:50:00,30.9,1.7,23.39,WNW,295,5.8,8.1,28,0.00,,---,0.00,VWS V14.01,2013-01-11 18:50:00,
2013-01-11 11:55:00,31.1,1.8,23.42,WNW,284,4.0,8.7,28,0.00,,---,0.00,VWS V14.01,2013-01-11 18:55:00,
2013-01-11 12:01:00,31.5,2.1,23.42,SE,136,2.7,4.9,28,0.00,,---,0.00,VWS V14.01,2013-01-11 19:01:00,
2013-01-11 12:07:00,31.8,2.4,23.42,South,177,7.6,7.6,28,0.00,,---,0.00,VWS V14.01,2013-01-11 19:07:00,
2013-01-11 12:12:00,31.8,0.0,23.39,WNW,294,8.1,19.2,25,0.00,,---,0.00,VWS V14.01,2013-01-11 19:12:00,
2013-01-11 12:18:00,32.2,0.3,23.39,SE,144,5.8,5.8,25,0.00,,---,0.00,VWS V14.01,2013-01-11 19:18:00,
2013-01-11 12:24:00,32.2,0.3,23.39,WSW,256,10.1,10.1,25,0.00,,---,0.00,VWS V14.01,2013-01-11 19:24:00,
2013-01-11 12:29:00,32.2,0.3,23.39,WSW,252,4.9,8.1,25,0.00,,---,0.00,VWS V14.01,2013-01-11 19:29:00,
2013-01-11 12:35:00,32.2,0.3,23.39,West,268,5.4,10.1,25,0.00,,---,0.00,VWS V14.01,2013-01-11 19:35:00,
2013-01-11 12:41:00,32.2,-1.4,23.39,SSW,193,8.1,10.1,23,0.00,,---,0.00,VWS V14.01,2013-01-11 19:41:00,
2013-01-11 12:46:00,32.2,-1.4,23.39,WNW,294,5.4,10.5,23,0.00,,---,0.00,VWS V14.01,2013-01-11 19:46:00,
2013-01-11 12:52:00,32.2,-1.4,23.39,WNW,297,6.3,8.3,23,0.00,,---,0.00,VWS V14.01,2013-01-11 19:52:00,
2013-01-11 12:58:00,32.2,-1.4,23.42,SSW,199,11.4,11.4,23,0.00,,---,0.00,VWS V14.01,2013-01-11 19:58:00,
2013-01-11 13:03:00,32.2,-1.4,23.42,South,189,5.4,10.1,23,0.00,,---,0.00,VWS V14.01,2013-01-11 20:03:00,
2013-01-11 13:09:00,32.0,0.2,23.42,NNE,23,3.6,8.7,25,0.00,,---,0.00,VWS V14.01,2013-01-11 20:09:00,
2013-01-11 13:15:00,31.8,0.0,23.42,WNW,302,3.6,8.3,25,0.00,,---,0.00,VWS V14.01,2013-01-11 20:15:00,
2013-01-11 13:21:00,31.1,-0.6,23.42,SW,227,6.3,11.9,25,0.00,,---,0.00,VWS V14.01,2013-01-11 20:21:00,
2013-01-11 13:27:00,31.1,-0.6,23.45,SSW,192,8.7,8.7,25,0.00,,---,0.00,VWS V14.01,2013-01-11 20:27:00,
2013-01-11 13:33:00,31.1,-0.6,23.45,SSE,149,3.1,6.3,25,0.00,,---,0.00,VWS V14.01,2013-01-11 20:33:00,
2013-01-11 13:38:00,31.3,-0.4,23.45,East,80,8.3,8.3,25,0.00,,---,0.00,VWS V14.01,2013-01-11 20:38:00,
2013-01-11 13:44:00,31.1,-0.6,23.45,SSE,153,4.9,7.6,25,0.00,,---,0.00,VWS V14.01,2013-01-11 20:44:00,
2013-01-11 13:50:00,31.1,-0.6,23.45,SSE,168,2.7,4.0,25,0.00,,---,0.00,VWS V14.01,2013-01-11 20:50:00,
2013-01-11 13:56:00,31.3,-2.2,23.45,WNW,293,4.9,7.6,23,0.00,,---,0.00,VWS V14.01,2013-01-11 20:56:00,
2013-01-11 14:02:00,31.5,-2.0,23.45,SSE,159,2.2,3.6,23,0.00,,---,0.00,VWS V14.01,2013-01-11 21:02:00,
2013-01-11 14:07:00,31.5,-2.0,23.45,NE,56,5.8,5.8,23,0.00,,---,0.00,VWS V14.01,2013-01-11 21:07:00,
2013-01-11 14:13:00,31.1,-2.4,23.48,NNW,328,4.0,4.0,23,0.00,,---,0.00,VWS V14.01,2013-01-11 21:13:00,
2013-01-11 14:19:00,30.4,3.4,23.48,SSW,194,5.4,5.4,31,0.00,,---,0.00,VWS V14.01,2013-01-11 21:19:00,
2013-01-11 14:24:00,29.8,0.7,23.48,North,3,3.1,5.8,28,0.00,,---,0.00,VWS V14.01,2013-01-11 21:24:00,
2013-01-11 14:30:00,28.4,7.7,23.48,ENE,61,6.7,6.7,41,0.00,,---,0.00,VWS V14.01,2013-01-11 21:30:00,
2013-01-11 14:35:00,26.4,8.9,23.48,ESE,116,4.0,4.0,47,0.00,,---,0.00,VWS V14.01,2013-01-11 21:35:00,
2013-01-11 14:41:00,25.9,9.8,23.48,North,357,4.9,5.8,50,0.00,,---,0.00,VWS V14.01,2013-01-11 21:41:00,
2013-01-11 14:47:00,25.7,10.1,23.48,East,81,6.3,8.7,51,0.00,,---,0.00,VWS V14.01,2013-01-11 21:47:00,
2013-01-11 14:52:00,24.8,10.1,23.48,East,99,8.1,8.1,53,0.00,,---,0.00,VWS V14.01,2013-01-11 21:52:00,
2013-01-11 14:58:00,25.0,10.3,23.51,North,6,4.5,8.1,53,0.00,,---,0.00,VWS V14.01,2013-01-11 21:58:00,
2013-01-11 15:04:00,25.0,10.3,23.51,NE,38,4.0,5.8,53,0.00,,---,0.00,VWS V14.01,2013-01-11 22:04:00,
2013-01-11 15:09:00,25.9,6.0,23.51,NW,315,2.2,5.4,42,0.00,,---,0.00,VWS V14.01,2013-01-11 22:09:00,
2013-01-11 15:15:00,27.3,1.4,23.51,NW,311,4.0,8.1,32,0.00,,---,0.00,VWS V14.01,2013-01-11 22:15:00,
2013-01-11 15:21:00,28.0,1.3,23.51,ESE,123,5.4,5.4,31,0.00,,---,0.00,VWS V14.01,2013-01-11 22:21:00,
2013-01-11 15:27:00,28.4,1.6,23.54,NE,52,4.9,6.3,31,0.00,,---,0.00,VWS V14.01,2013-01-11 22:27:00,
2013-01-11 15:33:00,28.0,-0.9,23.54,ESE,109,2.7,6.3,28,0.00,,---,0.00,VWS V14.01,2013-01-11 22:33:00,
2013-01-11 15:38:00,27.9,1.2,23.54,ENE,71,0.0,4.9,31,0.00,,---,0.00,VWS V14.01,2013-01-11 22:38:00,
2013-01-11 15:44:00,27.3,1.4,23.54,SE,126,3.6,4.0,32,0.00,,---,0.00,VWS V14.01,2013-01-11 22:44:00,
2013-01-11 15:49:00,26.1,3.4,23.54,ESE,113,3.6,4.0,37,0.00,,---,0.00,VWS V14.01,2013-01-11 22:49:00,
2013-01-11 15:55:00,25.3,4.4,23.56,East,100,8.7,8.7,40,0.00,,---,0.00,VWS V14.01,2013-01-11 22:55:00,
2013-01-11 16:00:00,24.3,6.0,23.56,East,79,7.6,8.7,45,0.00,,---,0.00,VWS V14.01,2013-01-11 23:00:00,
2013-01-11 16:06:00,23.5,5.8,23.56,NNE,28,3.6,7.6,46,0.00,,---,0.00,VWS V14.01,2013-01-11 23:06:00,
2013-01-11 16:12:00,22.5,6.6,23.56,ENE,76,4.0,4.0,50,0.00,,---,0.00,VWS V14.01,2013-01-11 23:12:00,
2013-01-11 16:17:00,23.0,1.2,23.56,ESE,117,3.6,5.4,38,0.00,,---,0.00,VWS V14.01,2013-01-11 23:17:00,
2013-01-11 16:23:00,24.4,0.1,23.56,North,6,0.0,2.2,34,0.00,,---,0.00,VWS V14.01,2013-01-11 23:23:00,
2013-01-11 16:29:00,25.3,-0.4,23.56,SSW,198,0.0,4.9,32,0.00,,---,0.00,VWS V14.01,2013-01-11 23:29:00,
2013-01-11 16:35:00,25.5,-0.9,23.56,West,270,8.3,8.3,31,0.00,,---,0.00,VWS V14.01,2013-01-11 23:35:00,
2013-01-11 16:40:00,25.5,-0.9,23.59,NNW,346,2.7,3.6,31,0.00,,---,0.00,VWS V14.01,2013-01-11 23:40:00,
2013-01-11 16:46:00,25.3,-2.5,23.59,NNW,336,8.3,12.8,29,0.00,,---,0.00,VWS V14.01,2013-01-11 23:46:00,
2013-01-11 16:52:00,25.2,-2.6,23.59,NNE,16,7.2,10.5,29,0.00,,---,0.00,VWS V14.01,2013-01-11 23:52:00,
2013-01-11 16:58:00,24.8,-2.9,23.59,WSW,256,3.6,5.8,29,0.00,,---,0.00,VWS V14.01,2013-01-11 23:58:00,
2013-01-11 17:03:00,24.4,-3.2,23.59,South,169,3.6,3.6,29,0.00,,---,0.00,VWS V14.01,2013-01-12 00:03:00,
2013-01-11 17:08:00,24.3,-3.4,23.59,NW,312,3.6,4.9,29,0.00,,---,0.00,VWS V14.01,2013-01-12 00:08:00,
2013-01-11 17:14:00,23.7,-3.9,23.59,WNW,299,8.1,8.1,29,0.00,,---,0.00,VWS V14.01,2013-01-12 00:14:00,
2013-01-11 17:20:00,23.5,-4.0,23.59,WSW,257,2.7,5.4,29,0.00,,---,0.00,VWS V14.01,2013-01-12 00:20:00,
2013-01-11 17:26:00,23.2,-4.3,23.62,ENE,63,0.0,2.7,29,0.00,,---,0.00,VWS V14.01,2013-01-12 00:26:00,
2013-01-11 17:31:00,22.8,-4.0,23.62,SSE,163,2.2,5.4,30,0.00,,---,0.00,VWS V14.01,2013-01-12 00:31:00,
2013-01-11 17:36:00,22.8,-4.0,23.62,NNE,28,2.7,2.7,30,0.00,,---,0.00,VWS V14.01,2013-01-12 00:36:00,
2013-01-11 17:42:00,22.5,-2.9,23.62,NW,322,2.7,8.1,32,0.00,,---,0.00,VWS V14.01,2013-01-12 00:42:00,
2013-01-11 17:48:00,22.3,-3.1,23.62,NW,311,0.0,2.7,32,0.00,,---,0.00,VWS V14.01,2013-01-12 00:48:00,
2013-01-11 17:53:00,22.1,-3.2,23.62,SSW,200,3.1,6.3,32,0.00,,---,0.00,VWS V14.01,2013-01-12 00:53:00,
2013-01-11 17:59:00,22.1,-3.2,23.62,SE,145,2.7,8.7,32,0.00,,---,0.00,VWS V14.01,2013-01-12 00:59:00,
2013-01-11 18:05:00,21.9,-3.4,23.62,NW,310,0.0,2.7,32,0.00,,---,0.00,VWS V14.01,2013-01-12 01:05:00,
2013-01-11 18:10:00,21.7,-3.6,23.62,West,263,0.0,0.0,32,0.00,,---,0.00,VWS V14.01,2013-01-12 01:10:00,
2013-01-11 18:16:00,21.4,-3.9,23.62,NW,305,4.0,5.8,32,0.00,,---,0.00,VWS V14.01,2013-01-12 01:16:00,
2013-01-11 18:21:00,21.2,-3.4,23.62,East,79,3.1,4.9,33,0.00,,---,0.00,VWS V14.01,2013-01-12 01:21:00,
2013-01-11 18:27:00,21.2,-3.4,23.65,West,275,4.9,4.9,33,0.00,,---,0.00,VWS V14.01,2013-01-12 01:27:00,
2013-01-11 18:32:00,21.2,-3.4,23.65,SSW,196,0.0,3.6,33,0.00,,---,0.00,VWS V14.01,2013-01-12 01:32:00,
2013-01-11 18:38:00,21.2,-3.4,23.65,SW,215,5.4,5.8,33,0.00,,---,0.00,VWS V14.01,2013-01-12 01:38:00,
2013-01-11 18:43:00,21.0,-3.6,23.65,South,187,6.3,8.7,33,0.00,,---,0.00,VWS V14.01,2013-01-12 01:43:00,
2013-01-11 18:49:00,21.0,-3.6,23.65,SW,221,4.0,8.3,33,0.00,,---,0.00,VWS V14.01,2013-01-12 01:49:00,
2013-01-11 18:54:00,21.0,-3.6,23.65,ESE,106,2.7,5.4,33,0.00,,---,0.00,VWS V14.01,2013-01-12 01:54:00,
2013-01-11 19:00:00,21.0,-4.2,23.65,SSW,212,5.4,6.3,32,0.00,,---,0.00,VWS V14.01,2013-01-12 02:00:00,
2013-01-11 19:06:00,20.8,-4.4,23.65,SSW,207,5.8,12.8,32,0.00,,---,0.00,VWS V14.01,2013-01-12 02:06:00,
2013-01-11 19:11:00,20.7,-4.5,23.65,NNW,330,6.3,6.3,32,0.00,,---,0.00,VWS V14.01,2013-01-12 02:11:00,
2013-01-11 19:17:00,20.7,-4.5,23.65,SSW,197,3.6,8.7,32,0.00,,---,0.00,VWS V14.01,2013-01-12 02:17:00,
2013-01-11 19:23:00,20.5,-4.7,23.65,SW,225,4.9,7.6,32,0.00,,---,0.00,VWS V14.01,2013-01-12 02:23:00,
2013-01-11 19:29:00,20.3,-4.8,23.65,West,278,8.7,10.1,32,0.00,,---,0.00,VWS V14.01,2013-01-12 02:29:00,
2013-01-11 19:35:00,20.3,-4.8,23.65,East,101,0.0,4.9,32,0.00,,---,0.00,VWS V14.01,2013-01-12 02:35:00,
2013-01-11 19:41:00,20.3,-4.8,23.65,South,189,3.1,10.1,32,0.00,,---,0.00,VWS V14.01,2013-01-12 02:41:00,
2013-01-11 19:47:00,20.1,-5.0,23.65,SSW,207,3.1,7.2,32,0.00,,---,0.00,VWS V14.01,2013-01-12 02:47:00,
2013-01-11 19:53:00,20.1,-5.0,23.65,WNW,292,4.0,10.5,32,0.00,,---,0.00,VWS V14.01,2013-01-12 02:53:00,
2013-01-11 19:58:00,20.1,-5.0,23.65,SSW,195,3.6,5.8,32,0.00,,---,0.00,VWS V14.01,2013-01-12 02:58:00,
2013-01-11 20:04:00,19.9,-6.5,23.65,NW,311,6.3,10.5,30,0.00,,---,0.00,VWS V14.01,2013-01-12 03:04:00,
2013-01-11 20:09:00,19.9,-6.5,23.65,SW,220,8.7,8.7,30,0.00,,---,0.00,VWS V14.01,2013-01-12 03:09:00,
2013-01-11 20:15:00,19.9,-6.5,23.65,ESE,105,3.1,11.9,30,0.00,,---,0.00,VWS V14.01,2013-01-12 03:15:00,
2013-01-11 20:21:00,19.9,-6.5,23.65,SSW,203,2.7,10.5,30,0.00,,---,0.00,VWS V14.01,2013-01-12 03:21:00,
2013-01-11 20:27:00,19.8,-6.7,23.68,South,191,3.6,13.2,30,0.00,,---,0.00,VWS V14.01,2013-01-12 03:27:00,
2013-01-11 20:32:00,19.8,-6.7,23.68,NW,321,5.4,7.6,30,0.00,,---,0.00,VWS V14.01,2013-01-12 03:32:00,
2013-01-11 20:38:00,19.8,-6.7,23.68,SW,221,5.4,7.6,30,0.00,,---,0.00,VWS V14.01,2013-01-12 03:38:00,
2013-01-11 20:44:00,19.6,-6.8,23.68,SSW,192,7.6,8.3,30,0.00,,---,0.00,VWS V14.01,2013-01-12 03:44:00,
2013-01-11 20:50:00,19.6,-6.8,23.68,SSE,152,6.7,7.6,30,0.00,,---,0.00,VWS V14.01,2013-01-12 03:50:00,
2013-01-11 20:55:00,19.6,-6.8,23.68,WSW,257,9.6,13.2,30,0.00,,---,0.00,VWS V14.01,2013-01-12 03:55:00,
2013-01-11 21:01:00,19.6,-6.8,23.68,West,280,3.6,7.6,30,0.00,,---,0.00,VWS V14.01,2013-01-12 04:01:00,
2013-01-11 21:06:00,19.6,-6.8,23.68,WSW,253,4.0,5.8,30,0.00,,---,0.00,VWS V14.01,2013-01-12 04:06:00,
2013-01-11 21:12:00,19.6,-6.8,23.68,East,101,2.7,8.3,30,0.00,,---,0.00,VWS V14.01,2013-01-12 04:12:00,
2013-01-11 21:18:00,19.4,-7.0,23.68,WSW,239,4.0,10.1,30,0.00,,---,0.00,VWS V14.01,2013-01-12 04:18:00,
2013-01-11 21:24:00,19.2,-7.1,23.68,WNW,291,8.7,8.7,30,0.00,,---,0.00,VWS V14.01,2013-01-12 04:24:00,
2013-01-11 21:29:00,19.2,-7.1,23.68,South,189,7.2,7.2,30,0.00,,---,0.00,VWS V14.01,2013-01-12 04:29:00,
2013-01-11 21:35:00,19.0,-7.3,23.68,NW,304,3.6,4.9,30,0.00,,---,0.00,VWS V14.01,2013-01-12 04:35:00,
2013-01-11 21:41:00,18.9,-7.4,23.68,SSE,155,3.6,7.2,30,0.00,,---,0.00,VWS V14.01,2013-01-12 04:41:00,
2013-01-11 21:46:00,19.0,-7.3,23.68,SW,219,12.8,12.8,30,0.00,,---,0.00,VWS V14.01,2013-01-12 04:46:00,
2013-01-11 21:51:00,18.9,-7.4,23.68,South,183,9.6,9.6,30,0.00,,---,0.00,VWS V14.01,2013-01-12 04:51:00,
2013-01-11 21:57:00,18.9,-7.4,23.68,South,185,7.6,8.3,30,0.00,,---,0.00,VWS V14.01,2013-01-12 04:57:00,
2013-01-11 22:01:00,18.7,-7.6,23.68,WSW,243,5.8,14.5,30,0.00,,---,0.00,VWS V14.01,2013-01-12 05:01:00,
2013-01-11 22:04:00,18.7,-7.6,23.68,SW,232,6.7,17.0,30,0.00,,---,0.00,VWS V14.01,2013-01-12 05:04:00,
2013-01-11 22:05:00,18.7,-7.6,23.68,WSW,244,12.8,12.8,30,0.00,,---,0.00,VWS V14.01,2013-01-12 05:05:00,
2013-01-11 22:06:00,18.7,-7.6,23.68,SSW,210,4.0,12.8,30,0.00,,---,0.00,VWS V14.01,2013-01-12 05:06:00,
2013-01-11 22:11:00,18.5,-7.8,23.68,SSW,197,8.3,8.3,30,0.00,,---,0.00,VWS V14.01,2013-01-12 05:11:00,
2013-01-11 22:16:00,18.5,-7.8,23.68,NW,306,5.4,10.1,30,0.00,,---,0.00,VWS V14.01,2013-01-12 05:16:00,
2013-01-11 22:22:00,18.5,-7.8,23.68,SSE,166,7.6,11.9,30,0.00,,---,0.00,VWS V14.01,2013-01-12 05:22:00,
2013-01-11 22:28:00,18.5,-7.8,23.68,West,268,3.6,8.3,30,0.00,,---,0.00,VWS V14.01,2013-01-12 05:28:00,
2013-01-11 22:33:00,18.3,-7.9,23.68,SSW,208,9.6,9.6,30,0.00,,---,0.00,VWS V14.01,2013-01-12 05:33:00,
2013-01-11 22:39:00,18.5,-7.8,23.68,West,281,5.4,11.0,30,0.00,,---,0.00,VWS V14.01,2013-01-12 05:39:00,
2013-01-11 22:45:00,18.5,-7.8,23.68,WNW,295,3.1,10.1,30,0.00,,---,0.00,VWS V14.01,2013-01-12 05:45:00,
2013-01-11 22:51:00,18.5,-7.8,23.68,SSW,203,4.0,4.0,30,0.00,,---,0.00,VWS V14.01,2013-01-12 05:51:00,
2013-01-11 22:56:00,18.3,-7.9,23.71,NE,47,3.1,5.8,30,0.00,,---,0.00,VWS V14.01,2013-01-12 05:56:00,
2013-01-11 23:02:00,18.3,-7.9,23.71,South,189,2.7,4.9,30,0.00,,---,0.00,VWS V14.01,2013-01-12 06:02:00,
2013-01-11 23:07:00,18.5,-7.8,23.71,SSW,198,3.1,3.1,30,0.00,,---,0.00,VWS V14.01,2013-01-12 06:07:00,
2013-01-11 23:13:00,18.3,-7.9,23.71,West,259,4.0,4.5,30,0.00,,---,0.00,VWS V14.01,2013-01-12 06:13:00,
2013-01-11 23:19:00,18.1,-8.1,23.71,SSE,149,4.9,4.9,30,0.00,,---,0.00,VWS V14.01,2013-01-12 06:19:00,
2013-01-11 23:24:00,18.1,-8.1,23.71,SSW,196,2.7,3.1,30,0.00,,---,0.00,VWS V14.01,2013-01-12 06:24:00,
2013-01-11 23:30:00,18.1,-8.1,23.71,WNW,293,3.1,4.5,30,0.00,,---,0.00,VWS V14.01,2013-01-12 06:30:00,
2013-01-11 23:36:00,18.1,-8.1,23.71,WSW,258,6.3,8.3,30,0.00,,---,0.00,VWS V14.01,2013-01-12 06:36:00,
2013-01-11 23:42:00,18.0,-8.2,23.71,WNW,285,2.7,6.7,30,0.00,,---,0.00,VWS V14.01,2013-01-12 06:42:00,
2013-01-11 23:47:00,18.1,-8.1,23.71,SSE,164,4.0,4.9,30,0.00,,---,0.00,VWS V14.01,2013-01-12 06:47:00,
2013-01-11 23:53:00,18.0,-8.2,23.71,SE,139,4.9,4.9,30,0.00,,---,0.00,VWS V14.01,2013-01-12 06:53:00,
2013-01-11 23:59:00,17.8,-8.4,23.71,NE,53,2.7,3.1,30,0.00,,---,0.00,VWS V14.01,2013-01-12 06:59:00,